sat.trackr.live / text

‹ back to catalog

STARLINK-36405

NORAD 67921 · 2026-036T

PAYLOAD ACTIVE UNKNOWN

§ Identity

Operator
Country
US
Launch date
2026-02-22
Launch site
AFETR
Launch vehicle
Mass (kg)
RCS (m²)

Purposes: comms

External: N2YO · Heavens-Above · Gunter

§ Orbital elements

Epoch: 2026-09-19T22:03:33.359040Z

Period
94.27 min
Inclination
43.0011°
Eccentricity
0.0001860
Mean motion
15.27581819 rev/d
Perigee alt
481.8 km
Apogee alt
484.3 km
Semi-major
6,861.2 km
B*
6.5251e-4
RAAN
228.6623°
Arg perigee
289.3990°
Mean anomaly
70.6660°
Rev number
3,342

§ Raw data

STARLINK-364051 67921U 26036T   26262.91913610  .00017738  00000+0  65251-3 0  99972 67921  43.0011 228.6623 0001860 289.3990  70.6660 15.27581819 33424

JSON: /api/v1/satellites/67921 · /tle

For live sub-satellite position, see the globe view (requires WebGL).

§ Visibility from observer

Set your observer location to see the next 7 days of passes ≥ 10°. The values pass through the URL so the page stays shareable.

No JS? Fill the form by hand. The geolocation button needs JavaScript.